SCP
0 0 0 0 0 0 0 0 0 0 0 0 0 0 0 0 0 0 0 0 0 0 0 0 0 0 0 0 0 0 0 0 0 0 0 0 0 0 0 0 0 0 0
0 0 0 0 0 0 0 0 0 0 0 0 0 0 0 0 0 0 0 0 0 0 0 0 0 0 0 0 0 0 0 0 0 0 0 0 0 0 0 0 0 0 0
0 0 0 0 0 0 0 0 0 0 0 0 0 0 0 0 0 0 0 0 0 -0 0 0 0 0 0 0 0 0 0 0 0 0 0 0 0 0 0 0 0 0 1
0 0 0 0 0 0 0 0 0 0 0 0 0 0 0 0 0 0 -0 0 0 0 0 0 -0 0 0 0 0 0 0 0 0 0 0 0 0 0 0 0 0 0 0
0 0 0 0 0 0 0 0 0 0 0 0 0 0 0 0 0 0 0 -0 0 0 0 0 -0 0 0 0 0 0 0 0 0 0 0 0 0 0 0 0 0 0 1
0 0 0 0 0 0 0 0 0 0 0 0 0 0 0 0 0 0 0 0 0 0 0 0 -0 -0 -0 -0 -0 0 0 0 0 0 0 0 0 0 0 0 0 0 0
0 0 0 0 0 0 0 0 0 0 0 0 0 0 0 0 0 0 0 0 0 0 0 -0 0 0 -0 -0 -0 0 0 0 0 0 0 0 0 0 0 0 0 0 0
0 0 0 0 0 0 0 0 0 0 0 0 0 0 0 0 0 0 0 0 0 0 0 0 0 0 0 0 0 0 0 -0 -0 0 0 0 0 -0 0 0 0 0 0
0 0 0 0 0 0 0 0 0 0 0 0 0 0 0 0 0 0 0 0 0 0 0 0 -0 -0 -0 -0 0 0 0 -0 -0 0 0 0 -0 -0 -0 0 0 0 0
0 0 0 0 0 0 0 0 0 0 0 0 0 0 0 0 0 0 0 0 0 0 -0 -0 -0 0 -0 0 0 0 0 -0 0 0 0 0 0 -0 0 0 0 0 0
0 0 0 0 0 0 0 0 0 0 0 0 0 0 0 0 0 0 0 0 0 0 0 0 0 0 0 0 0 0 0 0 0 0 -0 0 0 0 0 0 0 0 0
0 0 0 0 0 0 0 0 0 0 0 0 0 0 0 0 0 0 0 0 0 0 0 0 0 0 0 0 0 0 0 0 0 0 0 0 0 0 0 0 0 -0 0
0 0 0 0 0 0 0 0 0 0 0 0 0 0 0 0 0 0 0 0 0 0 0 0 0 0 0 0 0 0 0 0 0 0 0 0 0 0 0 0 0 0 -0
0 0 0 0 0 0 0 0 0 -0 0 0 -0 0 0 0 0 0 0 0 0 0 0 0 0 0 0 0 0 0 0 -0 -0 0 0 0 0 0 0 0 0 0 0
0 0 0 0 0 0 0 0 0 0 0 -0 0 -0 0 0 0 0 0 0 0 0 0 0 0 0 0 0 0 0 0 0 0 0 0 0 0 0 0 0 0 0 0
0 0 0 0 0 0 0 0 0 0 0 0 0 -0 -0 -0 0 0 0 0 0 0 0 0 0 0 0 0 0 0 0 0 0 0 0 0 0 0 0 0 0 0 0
0 0 0 0 0 0 0 0 0 0 0 0 0 -0 0 0 -0 0 0 0 0 0 0 0 0 0 0 0 0 0 0 0 0 0 0 0 0 0 0 0 0 0 0
0 0 0 0 0 0 0 -0 0 0 0 0 0 0 0 0 0 0 0 0 0 0 0 0 0 0 0 0 0 0 0 0 0 0 0 0 0 0 0 0 0 0 0
0 0 0 0 0 0 0 -0 0 0 0 0 0 0 0 0 0 0 0 0 -0 0 -0 0 0 0 0 0 0 0 0 0 0 0 0 0 0 0 0 0 0 0 -0
0 0 0 0 0 0 0 0 0 -0 0 0 0 -0 -0 -0 0 0 0 0 0 0 0 0 0 0 0 0 0 0 0 0 0 0 0 0 0 0 0 0 0 0 -0
0 0 0 0 0 0 0 0 0 0 -0 0 0 0 -0 -0 -0 -0 0 0 0 0 0 0 0 0 0 0 -0 0 0 0 0 0 -0 -0 -0 -0 -0 -0 -0 -0 0
0 0 0 0 0 0 0 0 0 0 -0 -0 -0 -0 -0 -0 -0 -0 0 0 0 0 0 0 0 0 0 0 -0 -0 0 0 0 0 -0 -0 -0 -0 -0 0 -0 0 0
0 0 0 0 0 0 0 0 0 0 0 -0 -0 -0 -0 -0 0 0 0 0 0 0 0 0 0 0 0 0 0 0 0 -0 -0 -0 -0 -0 -0 -0 0 0 0 -0 0
0 0 0 0 0 0 0 0 0 0 0 -0 -0 -0 -0 0 0 0 0 0 0 0 0 0 0 -0 -0 -0 0 0 -0 -0 -0 -0 -0 0 0 0 0 0 0 0 0
0 0 0 0 0 0 0 0 0 0 0 -0 -0 -0 -0 -0 0 0 0 0 0 -0 0 -0 0 0 -0 0 0 0 -0 -0 -0 -0 -0 0 0 0 0 0 0 0 0
0 0 0 0 0 0 0 0 0 0 0 -0 0 0 -0 -0 -0 0 0 -0 -0 0 -0 -0 -0 0 0 0 0 0 0 0 0 0 0 0 0 0 0 0 0 0 0
Wind_Speed_500mb
8 3 5 9 11 12 13 19 24 33 36 35 35 34 32 30 30 27 33 30 31 29 30 30 28 26 25 23 27 26 27 23 23 25 28 31 31 31 29 30 32 35 40
7 7 5 8 10 10 14 19 24 29 30 31 32 32 30 29 27 32 33 33 29 26 27 30 29 29 29 25 28 30 29 26 23 21 25 24 24 24 25 26 28 29 30
3 4 3 6 9 13 18 22 27 26 28 33 31 31 27 28 30 32 34 31 27 24 24 26 27 28 29 29 27 26 25 27 22 22 18 12 11 20 10 13 20 25 33
6 4 4 7 10 15 19 23 25 24 28 33 32 31 32 31 31 31 31 29 27 30 25 23 21 22 22 25 23 20 19 20 21 18 16 21 12 12 10 12 23 28 32
9 8 7 7 11 17 23 23 24 25 28 30 32 31 30 29 27 26 33 27 26 32 34 26 18 11 14 17 16 16 18 18 15 15 13 12 18 14 12 22 35 33 26
14 11 7 6 12 20 24 21 24 25 29 28 31 30 29 28 26 27 23 28 27 30 32 27 20 15 14 15 18 19 18 14 10 13 9 5 6 1 10 27 42 33 27
14 8 5 9 16 22 23 21 24 25 27 27 27 28 29 30 24 22 25 27 28 29 38 26 36 18 24 11 10 10 10 6 10 3 4 9 8 4 8 24 24 20 20
11 7 5 12 19 22 21 19 23 27 27 27 24 25 29 24 24 21 21 24 25 25 26 29 35 31 26 18 17 10 7 11 24 12 16 12 13 13 10 23 22 10 7
11 8 6 12 18 20 19 19 23 25 27 29 29 26 27 27 23 20 20 21 23 22 24 24 24 26 29 27 21 23 23 21 28 23 20 21 20 19 22 20 10 12 9
8 5 9 17 21 20 17 19 21 23 24 29 29 27 30 30 27 20 19 20 19 19 21 23 21 21 24 27 26 31 29 27 24 22 18 17 16 17 16 13 8 4 2
5 4 6 13 18 18 17 18 18 22 22 22 24 28 32 36 26 20 17 20 21 20 19 20 17 16 18 21 26 23 24 21 19 18 17 18 17 15 12 10 8 7 6
3 4 10 17 18 15 15 17 18 20 19 21 23 24 29 32 24 22 19 18 20 19 18 16 14 14 17 15 18 20 19 17 16 14 14 14 10 11 11 8 12 9 10
1 8 14 20 18 12 13 17 17 16 15 17 22 25 28 25 21 21 22 25 21 21 15 14 13 13 15 17 18 19 17 16 15 14 13 13 11 12 11 14 12 7 5
7 13 19 20 15 10 12 14 14 12 11 15 21 26 29 25 23 22 23 24 23 21 17 15 12 12 12 13 14 13 15 16 16 17 16 15 15 15 16 10 10 8 8
15 19 18 16 11 9 11 13 11 9 11 16 19 25 26 27 21 23 23 24 25 24 22 19 17 13 11 7 8 16 19 18 17 19 20 21 24 22 19 14 7 6 6
19 17 15 12 7 8 10 10 7 7 14 12 19 19 20 23 22 17 18 20 22 24 24 23 21 17 12 14 17 21 11 14 15 14 15 13 19 16 15 13 13 13 7
17 15 12 9 6 8 10 9 7 9 11 14 15 18 17 18 16 14 12 15 18 18 19 20 19 19 20 21 20 16 12 13 12 12 12 13 9 14 8 13 16 17 17
14 12 9 8 7 7 9 10 8 9 10 10 13 15 14 14 14 12 10 11 11 11 15 17 17 15 17 17 17 16 15 8 7 8 8 10 10 11 15 12 12 13 13
12 10 8 7 7 8 10 10 9 11 9 7 9 11 14 13 14 13 15 14 10 10 9 8 11 14 13 11 9 10 7 7 8 8 8 9 10 14 14 15 14 14 15
13 12 11 10 11 10 10 11 11 12 8 2 4 11 18 17 13 15 13 14 13 8 5 7 7 7 5 6 6 6 7 10 10 9 9 15 14 14 14 13 15 18 15
16 15 15 15 16 15 15 13 14 14 7 7 7 11 16 19 23 20 16 11 9 11 13 13 12 10 9 9 7 4 6 8 10 9 7 13 14 13 15 20 17 15 13
19 19 19 19 18 17 17 17 19 15 11 12 12 13 13 17 24 21 16 14 14 12 16 13 13 12 15 14 13 11 9 7 8 8 10 15 15 16 19 16 17 16 12
18 19 20 20 20 19 20 20 21 21 17 16 17 15 13 17 20 26 23 17 17 12 15 11 10 11 13 12 18 18 19 17 13 12 15 17 19 19 20 25 18 14 13
16 17 19 21 21 21 20 20 22 24 22 20 19 17 15 20 20 20 16 20 15 14 12 12 10 7 6 6 8 9 11 15 16 18 18 18 17 14 16 17 16 14 14
22 20 19 21 23 22 22 20 22 26 27 25 21 17 16 19 19 20 19 22 17 13 12 11 9 6 5 11 8 6 6 9 14 17 14 16 15 15 14 15 15 15 16
32 28 27 24 24 25 26 24 25 28 30 28 23 20 21 21 22 21 22 24 22 17 15 15 12 9 12 15 14 12 12 15 17 15 16 18 17 16 14 14 15 16 18
Wind_Direction_500mb
186 218 19 14 359 3 356 348 337 334 344 341 341 340 339 340 335 330 329 328 316 310 304 298 295 303 289 290 296 289 282 278 271 266 257 253 240 242 233 225 215 208 209
179 111 27 20 28 16 1 352 349 348 352 353 349 343 339 342 339 335 336 335 325 318 305 295 293 295 289 290 288 281 279 280 271 258 261 247 221 223 213 211 207 199 190
136 91 54 40 28 7 359 353 353 355 354 357 348 347 350 344 339 346 343 340 340 331 318 303 295 282 279 288 291 288 275 281 283 275 247 270 227 188 191 176 184 182 178
123 115 89 55 22 5 354 351 354 358 354 355 357 358 357 350 350 351 352 356 358 350 342 321 296 295 280 287 294 291 283 278 288 288 245 243 243 203 156 161 166 160 161
135 124 96 59 16 2 357 354 358 353 356 360 0 4 357 356 354 356 6 6 0 5 10 8 1 337 303 299 307 318 310 298 305 291 272 244 239 236 213 162 162 166 156
145 139 113 56 8 357 355 355 356 354 355 358 3 4 1 1 357 359 355 354 8 8 15 17 9 354 339 312 314 320 311 302 300 302 291 264 210 244 214 169 166 159 165
152 132 93 19 3 357 358 356 352 352 356 355 358 0 359 1 356 354 354 4 2 7 20 26 17 36 6 344 335 319 339 338 318 289 136 100 118 159 134 154 143 162 159
143 123 64 23 7 354 355 357 354 353 354 352 351 352 356 359 354 345 346 347 352 357 3 22 29 27 24 21 31 79 37 60 65 114 112 106 111 138 145 149 168 142 177
146 126 53 20 6 357 350 355 354 354 357 352 353 359 354 353 348 348 351 336 348 360 3 6 0 11 20 36 50 65 83 96 85 96 96 89 89 99 97 136 148 167 177
141 88 21 15 359 355 354 351 354 358 2 3 8 9 6 1 359 4 352 349 354 1 1 0 0 14 26 45 63 69 75 78 80 78 80 86 90 90 104 115 124 124 82
142 72 4 8 342 351 354 353 355 0 6 3 7 9 13 11 5 11 360 356 0 2 359 357 2 13 31 43 51 57 52 56 61 64 67 72 74 93 87 88 82 70 88
116 354 4 351 343 347 353 350 353 359 1 349 360 353 7 9 19 16 15 9 4 2 5 7 15 11 29 46 46 41 34 30 30 38 51 58 56 63 76 72 87 99 100
291 336 339 337 338 346 348 352 355 359 6 351 359 354 356 4 14 17 22 15 15 10 23 24 26 22 18 24 26 24 26 36 39 43 51 54 60 79 96 108 95 88 116
310 323 328 331 336 343 344 351 355 1 5 353 358 5 9 16 28 32 23 27 30 30 39 38 30 27 27 25 28 25 40 61 55 63 71 69 73 91 89 74 60 46 67
316 323 324 327 329 333 347 351 356 8 351 343 356 14 24 25 31 38 43 46 47 49 48 46 45 44 37 42 76 40 51 62 62 69 67 77 86 84 93 97 84 81 82
325 319 318 320 311 323 335 345 348 345 343 351 359 23 22 34 36 41 42 42 44 43 43 40 42 52 43 72 82 97 67 67 75 77 81 65 68 74 75 65 50 39 24
322 319 312 305 282 309 318 320 310 317 325 339 359 11 14 23 34 34 30 25 26 39 42 43 44 47 64 79 84 75 61 64 51 50 53 69 51 54 8 359 18 18 10
318 319 311 297 284 293 304 309 297 306 319 351 5 6 351 357 9 351 360 17 30 39 47 48 54 50 55 66 73 76 59 44 47 62 38 27 8 358 14 8 355 353 345
313 308 294 281 282 292 289 303 278 291 315 14 19 13 20 14 358 337 351 352 3 14 39 33 44 53 51 53 57 52 23 15 358 343 322 324 329 334 339 345 334 332 326
304 296 283 282 283 291 288 287 266 272 295 304 341 353 357 6 4 356 353 343 332 322 332 312 320 341 342 2 14 13 47 359 355 324 326 349 359 330 338 353 337 329 328
294 293 284 277 279 280 283 277 255 265 284 262 287 314 351 346 347 348 327 340 338 315 293 282 280 291 287 294 297 312 3 340 343 9 23 350 355 358 348 338 339 339 327
292 289 286 275 279 276 276 270 247 253 259 259 265 285 316 323 328 343 337 316 319 322 322 279 274 275 278 281 270 266 287 319 357 334 331 345 345 335 336 344 338 342 5
289 283 280 271 272 274 275 263 247 248 253 256 260 276 294 313 318 327 335 338 313 329 338 326 292 273 271 283 279 262 259 269 291 283 303 324 333 334 350 331 336 5 341
292 283 274 267 270 272 274 267 246 244 250 257 257 269 275 292 312 323 324 327 310 308 319 338 330 288 284 293 296 300 278 287 287 292 307 305 318 322 340 347 334 326 326
291 284 274 264 263 266 269 265 249 246 247 256 264 258 277 292 298 302 313 321 300 282 294 301 325 309 277 256 299 298 281 271 266 268 283 291 294 299 299 309 313 319 317
282 277 274 270 265 260 264 262 252 248 248 259 259 260 268 284 295 291 305 307 315 294 287 291 296 289 287 278 282 284 283 284 282 283 280 281 283 288 293 302 308 311 313
Wind_Speed_850mb
8 3 5 9 11 12 13 19 24 33 36 35 35 34 32 30 30 27 33 30 31 29 30 30 28 26 25 23 27 26 27 23 23 25 28 31 31 31 29 30 32 35 40
7 7 5 8 10 10 14 19 24 29 30 31 32 32 30 29 27 32 33 33 29 26 27 30 29 29 29 25 28 30 29 26 23 21 25 24 24 24 25 26 28 29 30
3 4 3 6 9 13 18 22 27 26 28 33 31 31 27 28 30 32 34 31 27 24 24 26 27 28 29 29 27 26 25 27 22 22 18 12 11 20 10 13 20 25 33
6 4 4 7 10 15 19 23 25 24 28 33 32 31 32 31 31 31 31 29 27 30 25 23 21 22 22 25 23 20 19 20 21 18 16 21 12 12 10 12 23 28 32
9 8 7 7 11 17 23 23 24 25 28 30 32 31 30 29 27 26 33 27 26 32 34 26 18 11 14 17 16 16 18 18 15 15 13 12 18 14 12 22 35 33 26
14 11 7 6 12 20 24 21 24 25 29 28 31 30 29 28 26 27 23 28 27 30 32 27 20 15 14 15 18 19 18 14 10 13 9 5 6 1 10 27 42 33 27
14 8 5 9 16 22 23 21 24 25 27 27 27 28 29 30 24 22 25 27 28 29 38 26 36 18 24 11 10 10 10 6 10 3 4 9 8 4 8 24 24 20 20
11 7 5 12 19 22 21 19 23 27 27 27 24 25 29 24 24 21 21 24 25 25 26 29 35 31 26 18 17 10 7 11 24 12 16 12 13 13 10 23 22 10 7
11 8 6 12 18 20 19 19 23 25 27 29 29 26 27 27 23 20 20 21 23 22 24 24 24 26 29 27 21 23 23 21 28 23 20 21 20 19 22 20 10 12 9
8 5 9 17 21 20 17 19 21 23 24 29 29 27 30 30 27 20 19 20 19 19 21 23 21 21 24 27 26 31 29 27 24 22 18 17 16 17 16 13 8 4 2
5 4 6 13 18 18 17 18 18 22 22 22 24 28 32 36 26 20 17 20 21 20 19 20 17 16 18 21 26 23 24 21 19 18 17 18 17 15 12 10 8 7 6
3 4 10 17 18 15 15 17 18 20 19 21 23 24 29 32 24 22 19 18 20 19 18 16 14 14 17 15 18 20 19 17 16 14 14 14 10 11 11 8 12 9 10
1 8 14 20 18 12 13 17 17 16 15 17 22 25 28 25 21 21 22 25 21 21 15 14 13 13 15 17 18 19 17 16 15 14 13 13 11 12 11 14 12 7 5
7 13 19 20 15 10 12 14 14 12 11 15 21 26 29 25 23 22 23 24 23 21 17 15 12 12 12 13 14 13 15 16 16 17 16 15 15 15 16 10 10 8 8
15 19 18 16 11 9 11 13 11 9 11 16 19 25 26 27 21 23 23 24 25 24 22 19 17 13 11 7 8 16 19 18 17 19 20 21 24 22 19 14 7 6 6
19 17 15 12 7 8 10 10 7 7 14 12 19 19 20 23 22 17 18 20 22 24 24 23 21 17 12 14 17 21 11 14 15 14 15 13 19 16 15 13 13 13 7
17 15 12 9 6 8 10 9 7 9 11 14 15 18 17 18 16 14 12 15 18 18 19 20 19 19 20 21 20 16 12 13 12 12 12 13 9 14 8 13 16 17 17
14 12 9 8 7 7 9 10 8 9 10 10 13 15 14 14 14 12 10 11 11 11 15 17 17 15 17 17 17 16 15 8 7 8 8 10 10 11 15 12 12 13 13
12 10 8 7 7 8 10 10 9 11 9 7 9 11 14 13 14 13 15 14 10 10 9 8 11 14 13 11 9 10 7 7 8 8 8 9 10 14 14 15 14 14 15
13 12 11 10 11 10 10 11 11 12 8 2 4 11 18 17 13 15 13 14 13 8 5 7 7 7 5 6 6 6 7 10 10 9 9 15 14 14 14 13 15 18 15
16 15 15 15 16 15 15 13 14 14 7 7 7 11 16 19 23 20 16 11 9 11 13 13 12 10 9 9 7 4 6 8 10 9 7 13 14 13 15 20 17 15 13
19 19 19 19 18 17 17 17 19 15 11 12 12 13 13 17 24 21 16 14 14 12 16 13 13 12 15 14 13 11 9 7 8 8 10 15 15 16 19 16 17 16 12
18 19 20 20 20 19 20 20 21 21 17 16 17 15 13 17 20 26 23 17 17 12 15 11 10 11 13 12 18 18 19 17 13 12 15 17 19 19 20 25 18 14 13
16 17 19 21 21 21 20 20 22 24 22 20 19 17 15 20 20 20 16 20 15 14 12 12 10 7 6 6 8 9 11 15 16 18 18 18 17 14 16 17 16 14 14
22 20 19 21 23 22 22 20 22 26 27 25 21 17 16 19 19 20 19 22 17 13 12 11 9 6 5 11 8 6 6 9 14 17 14 16 15 15 14 15 15 15 16
32 28 27 24 24 25 26 24 25 28 30 28 23 20 21 21 22 21 22 24 22 17 15 15 12 9 12 15 14 12 12 15 17 15 16 18 17 16 14 14 15 16 18
Wind_Direction_850mb
186 218 19 14 359 3 356 348 337 334 344 341 341 340 339 340 335 330 329 328 316 310 304 298 295 303 289 290 296 289 282 278 271 266 257 253 240 242 233 225 215 208 209
179 111 27 20 28 16 1 352 349 348 352 353 349 343 339 342 339 335 336 335 325 318 305 295 293 295 289 290 288 281 279 280 271 258 261 247 221 223 213 211 207 199 190
136 91 54 40 28 7 359 353 353 355 354 357 348 347 350 344 339 346 343 340 340 331 318 303 295 282 279 288 291 288 275 281 283 275 247 270 227 188 191 176 184 182 178
123 115 89 55 22 5 354 351 354 358 354 355 357 358 357 350 350 351 352 356 358 350 342 321 296 295 280 287 294 291 283 278 288 288 245 243 243 203 156 161 166 160 161
135 124 96 59 16 2 357 354 358 353 356 360 0 4 357 356 354 356 6 6 0 5 10 8 1 337 303 299 307 318 310 298 305 291 272 244 239 236 213 162 162 166 156
145 139 113 56 8 357 355 355 356 354 355 358 3 4 1 1 357 359 355 354 8 8 15 17 9 354 339 312 314 320 311 302 300 302 291 264 210 244 214 169 166 159 165
152 132 93 19 3 357 358 356 352 352 356 355 358 0 359 1 356 354 354 4 2 7 20 26 17 36 6 344 335 319 339 338 318 289 136 100 118 159 134 154 143 162 159
143 123 64 23 7 354 355 357 354 353 354 352 351 352 356 359 354 345 346 347 352 357 3 22 29 27 24 21 31 79 37 60 65 114 112 106 111 138 145 149 168 142 177
146 126 53 20 6 357 350 355 354 354 357 352 353 359 354 353 348 348 351 336 348 360 3 6 0 11 20 36 50 65 83 96 85 96 96 89 89 99 97 136 148 167 177
141 88 21 15 359 355 354 351 354 358 2 3 8 9 6 1 359 4 352 349 354 1 1 0 0 14 26 45 63 69 75 78 80 78 80 86 90 90 104 115 124 124 82
142 72 4 8 342 351 354 353 355 0 6 3 7 9 13 11 5 11 360 356 0 2 359 357 2 13 31 43 51 57 52 56 61 64 67 72 74 93 87 88 82 70 88
116 354 4 351 343 347 353 350 353 359 1 349 360 353 7 9 19 16 15 9 4 2 5 7 15 11 29 46 46 41 34 30 30 38 51 58 56 63 76 72 87 99 100
291 336 339 337 338 346 348 352 355 359 6 351 359 354 356 4 14 17 22 15 15 10 23 24 26 22 18 24 26 24 26 36 39 43 51 54 60 79 96 108 95 88 116
310 323 328 331 336 343 344 351 355 1 5 353 358 5 9 16 28 32 23 27 30 30 39 38 30 27 27 25 28 25 40 61 55 63 71 69 73 91 89 74 60 46 67
316 323 324 327 329 333 347 351 356 8 351 343 356 14 24 25 31 38 43 46 47 49 48 46 45 44 37 42 76 40 51 62 62 69 67 77 86 84 93 97 84 81 82
325 319 318 320 311 323 335 345 348 345 343 351 359 23 22 34 36 41 42 42 44 43 43 40 42 52 43 72 82 97 67 67 75 77 81 65 68 74 75 65 50 39 24
322 319 312 305 282 309 318 320 310 317 325 339 359 11 14 23 34 34 30 25 26 39 42 43 44 47 64 79 84 75 61 64 51 50 53 69 51 54 8 359 18 18 10
318 319 311 297 284 293 304 309 297 306 319 351 5 6 351 357 9 351 360 17 30 39 47 48 54 50 55 66 73 76 59 44 47 62 38 27 8 358 14 8 355 353 345
313 308 294 281 282 292 289 303 278 291 315 14 19 13 20 14 358 337 351 352 3 14 39 33 44 53 51 53 57 52 23 15 358 343 322 324 329 334 339 345 334 332 326
304 296 283 282 283 291 288 287 266 272 295 304 341 353 357 6 4 356 353 343 332 322 332 312 320 341 342 2 14 13 47 359 355 324 326 349 359 330 338 353 337 329 328
294 293 284 277 279 280 283 277 255 265 284 262 287 314 351 346 347 348 327 340 338 315 293 282 280 291 287 294 297 312 3 340 343 9 23 350 355 358 348 338 339 339 327
292 289 286 275 279 276 276 270 247 253 259 259 265 285 316 323 328 343 337 316 319 322 322 279 274 275 278 281 270 266 287 319 357 334 331 345 345 335 336 344 338 342 5
289 283 280 271 272 274 275 263 247 248 253 256 260 276 294 313 318 327 335 338 313 329 338 326 292 273 271 283 279 262 259 269 291 283 303 324 333 334 350 331 336 5 341
292 283 274 267 270 272 274 267 246 244 250 257 257 269 275 292 312 323 324 327 310 308 319 338 330 288 284 293 296 300 278 287 287 292 307 305 318 322 340 347 334 326 326
291 284 274 264 263 266 269 265 249 246 247 256 264 258 277 292 298 302 313 321 300 282 294 301 325 309 277 256 299 298 281 271 266 268 283 291 294 299 299 309 313 319 317
282 277 274 270 265 260 264 262 252 248 248 259 259 260 268 284 295 291 305 307 315 294 287 291 296 289 287 278 282 284 283 284 282 283 280 281 283 288 293 302 308 311 313